Погода в Энде

Индонезия     8°50′28″S   121°39′32″E
темп.,
°C
ветер,
м/с
пор.,
м/с
влажн.,
%
обл.,
%
осадки,
мм/ч
давл.,
гПа
погр.,
м
2 марта, вт
вт223:00+20ссв119599 0.0 101127
02:00+19с009496 0.0 100931
05:00+19ссв119391 0.0 100927
08:00+23с018261 0.0 1011255
11:00+28з11610 0.1 10111061
14:00+24зсз129045 3.4 1008485
17:00+23зсз119070 1.9 1008422
20:00+20ссв119771 2.7 101028
3 марта, ср
ср323:00+20св119243 0.4 101126
02:00+19ссв119152 0.9 100926
05:00+19ссв119178 0.0 101028
08:00+24с117866 0.0 1011190
11:00+28з126117 0.2 10111157
14:00+25зюз118847 4.6 1008518
17:00+23зюз119188 3.0 1008315
20:00+21ююв019576 4.4 101026
4 марта, чт
чт423:00+20вюв019298 0.0 101124
02:00+19всв019199 0.0 101024
05:00+19св119085 0.0 101027
08:00+24с017584 0.0 1011199
11:00+28зюз22561 0.0 10111347
14:00+25юз118615 3.0 1009613
17:00+23зсз119161 3.0 1008312
20:00+20с019181 3.5 101024
5 марта, пт
пт523:00+20юв0186100 0.0 101124
02:00+19ююв018386 0.0 100925
05:00+19всв11790 0.0 100934
08:00+24ссв11640 0.0 1011328
11:00+28з115515 0.0 10111220
14:00+26зюз117549 1.3 1008844
17:00+24зсз118588 1.4 1008504
20:00+21ссв119665 1.7 101030
6 марта, сб
сб623:00+20ссв11930 0.0 101027
02:00+20всв11921 0.0 100926
05:00+20в119353 0.1 100927
08:00+24ссз018057 0.1 1011290
11:00+28зсз01687 0.6 10101088
14:00+27сз127630 4.1 1008803
17:00+25зсз127874 0.9 1008498
20:00+20с129480 0.9 101050